Time,TemperatureF,DewpointF,PressureIn,WindDirection,WindDirectionDegrees,WindSpeedMPH,WindSpeedGustMPH,Humidity,HourlyPrecipIn,Conditions,Clouds,dailyrainin,SoftwareType,DateUTC
2013-09-27 00:24:00,49.0,41.0,30.11,NE,46,0.0,3.0,73,0.00,,,0.00,,2013-09-27 04:24:00,
2013-09-27 00:44:00,50.0,42.0,30.11,NE,47,0.0,3.0,73,0.00,,,0.00,,2013-09-27 04:44:00,
2013-09-27 00:54:00,50.0,42.0,30.11,NNE,25,0.0,3.0,73,0.00,,,0.00,,2013-09-27 04:54:00,
2013-09-27 01:13:00,50.0,42.0,30.11,NNE,25,0.0,1.0,73,0.00,,,0.00,,2013-09-27 05:13:00,
2013-09-27 01:23:00,50.0,42.0,30.12,NNE,25,0.0,0.0,73,0.00,,,0.00,,2013-09-27 05:23:00,
2013-09-27 01:52:00,49.0,41.0,30.12,NNE,25,0.0,1.0,73,0.00,,,0.00,,2013-09-27 05:52:00,
2013-09-27 02:12:00,49.0,41.0,30.13,NNE,24,0.0,0.0,73,0.00,,,0.00,,2013-09-27 06:12:00,
2013-09-27 02:22:00,49.0,41.0,30.13,NNE,24,0.0,0.0,73,0.00,,,0.00,,2013-09-27 06:22:00,
2013-09-27 02:43:00,48.0,40.0,30.14,NNE,26,0.0,1.0,73,0.00,,,0.00,,2013-09-27 06:43:00,
2013-09-27 02:52:00,48.0,40.0,30.14,NNE,26,0.0,0.0,73,0.00,,,0.00,,2013-09-27 06:52:00,
2013-09-27 03:22:00,48.0,40.0,30.14,NNE,24,0.0,0.0,73,0.00,,,0.00,,2013-09-27 07:22:00,
2013-09-27 03:53:00,47.0,39.0,30.14,NNE,25,0.0,0.0,73,0.00,,,0.00,,2013-09-27 07:53:00,
2013-09-27 04:22:00,47.0,39.0,30.14,NNE,26,0.0,0.0,74,0.00,,,0.00,,2013-09-27 08:22:00,
2013-09-27 05:22:00,46.0,38.0,30.16,NNE,26,0.0,0.0,74,0.00,,,0.00,,2013-09-27 09:22:00,
2013-09-27 06:23:00,45.0,37.0,30.17,NNE,25,0.0,0.0,74,0.00,,,0.00,,2013-09-27 10:23:00,
2013-09-27 06:42:00,45.0,37.0,30.18,NNE,25,0.0,0.0,74,0.00,,,0.00,,2013-09-27 10:42:00,
2013-09-27 06:52:00,45.0,37.0,30.18,NNE,26,0.0,0.0,74,0.00,,,0.00,,2013-09-27 10:52:00,
2013-09-27 07:12:00,45.0,37.0,30.19,NNE,26,0.0,0.0,74,0.00,,,0.00,,2013-09-27 11:12:00,
2013-09-27 07:22:00,45.0,37.0,30.19,NNE,26,0.0,0.0,74,0.00,,,0.00,,2013-09-27 11:22:00,
2013-09-27 07:52:00,45.0,37.0,30.20,NNE,25,0.0,0.0,74,0.00,,,0.00,,2013-09-27 11:52:00,
2013-09-27 08:12:00,45.0,37.0,30.21,NNE,25,0.0,0.0,74,0.00,,,0.00,,2013-09-27 12:12:00,
2013-09-27 08:21:00,45.0,37.0,30.22,NNE,25,0.0,0.0,74,0.00,,,0.00,,2013-09-27 12:21:00,
2013-09-27 08:42:00,46.0,38.0,30.22,NNE,26,0.0,0.0,74,0.00,,,0.00,,2013-09-27 12:42:00,
2013-09-27 08:52:00,47.0,39.0,30.22,NNE,26,0.0,0.0,75,0.00,,,0.00,,2013-09-27 12:52:00,
2013-09-27 09:11:00,49.0,41.0,30.22,East,80,0.0,3.0,75,0.00,,,0.00,,2013-09-27 13:11:00,
2013-09-27 09:22:00,50.0,42.0,30.22,ESE,123,1.0,5.0,75,0.00,,,0.00,,2013-09-27 13:22:00,
2013-09-27 09:52:00,52.0,44.0,30.23,SE,128,4.0,12.0,75,0.00,,,0.00,,2013-09-27 13:52:00,
2013-09-27 10:11:00,54.0,46.0,30.24,SE,140,0.0,7.0,74,0.00,,,0.00,,2013-09-27 14:11:00,
2013-09-27 10:22:00,55.0,47.0,30.24,NE,38,3.0,7.0,74,0.00,,,0.00,,2013-09-27 14:22:00,
2013-09-27 10:52:00,60.0,52.0,30.24,East,101,3.0,10.0,75,0.00,,,0.00,,2013-09-27 14:52:00,
2013-09-27 11:11:00,62.0,53.0,30.24,SE,136,2.0,10.0,73,0.00,,,0.00,,2013-09-27 15:11:00,
2013-09-27 11:22:00,62.0,53.0,30.24,NNE,32,2.0,10.0,73,0.00,,,0.00,,2013-09-27 15:22:00,
2013-09-27 11:54:00,65.0,55.0,30.23,North,10,2.0,7.0,70,0.00,,,0.00,,2013-09-27 15:54:00,
2013-09-27 12:13:00,66.0,55.0,30.23,NNE,33,1.0,8.0,67,0.00,,,0.00,,2013-09-27 16:13:00,
2013-09-27 12:24:00,66.0,55.0,30.23,ESE,111,1.0,5.0,67,0.00,,,0.00,,2013-09-27 16:24:00,
2013-09-27 12:44:00,64.0,54.0,30.23,ENE,60,1.0,3.0,70,0.00,,,0.00,,2013-09-27 16:44:00,
2013-09-27 12:53:00,64.0,54.0,30.23,ENE,60,1.0,3.0,70,0.00,,,0.00,,2013-09-27 16:53:00,
2013-09-27 13:13:00,63.0,53.0,30.23,East,80,1.0,3.0,70,0.00,,,0.00,,2013-09-27 17:13:00,
2013-09-27 13:23:00,64.0,54.0,30.22,East,86,1.0,3.0,71,0.00,,,0.00,,2013-09-27 17:23:00,
2013-09-27 13:43:00,64.0,54.0,30.22,East,82,1.0,3.0,70,0.00,,,0.00,,2013-09-27 17:43:00,
2013-09-27 13:52:00,64.0,54.0,30.22,East,81,0.0,3.0,70,0.00,,,0.00,,2013-09-27 17:52:00,
2013-09-27 14:13:00,64.0,54.0,30.21,NE,46,1.0,5.0,70,0.00,,,0.00,,2013-09-27 18:13:00,
2013-09-27 14:22:00,64.0,54.0,30.21,NE,45,0.0,5.0,71,0.00,,,0.00,,2013-09-27 18:22:00,
2013-09-27 14:52:00,64.0,55.0,30.21,NE,46,0.0,2.0,72,0.00,,,0.00,,2013-09-27 18:52:00,
2013-09-27 15:12:00,64.0,54.0,30.20,ENE,65,0.0,3.0,71,0.00,,,0.00,,2013-09-27 19:12:00,
2013-09-27 15:23:00,64.0,55.0,30.20,East,86,0.0,3.0,72,0.00,,,0.00,,2013-09-27 19:23:00,
2013-09-27 15:43:00,64.0,55.0,30.20,East,80,1.0,3.0,72,0.00,,,0.00,,2013-09-27 19:43:00,
2013-09-27 15:53:00,64.0,55.0,30.20,East,99,1.0,3.0,72,0.00,,,0.00,,2013-09-27 19:53:00,
2013-09-27 16:12:00,66.0,55.0,30.20,NE,51,1.0,7.0,68,0.00,,,0.00,,2013-09-27 20:12:00,
2013-09-27 16:22:00,66.0,54.0,30.19,East,101,1.0,5.0,66,0.00,,,0.00,,2013-09-27 20:22:00,
2013-09-27 16:43:00,65.0,55.0,30.20,ESE,102,1.0,6.0,69,0.00,,,0.00,,2013-09-27 20:43:00,
2013-09-27 16:52:00,65.0,54.0,30.20,East,88,1.0,5.0,68,0.00,,,0.00,,2013-09-27 20:52:00,
2013-09-27 17:12:00,64.0,54.0,30.20,ENE,76,0.0,6.0,70,0.00,,,0.00,,2013-09-27 21:12:00,
2013-09-27 17:22:00,64.0,54.0,30.20,East,95,1.0,3.0,71,0.00,,,0.00,,2013-09-27 21:22:00,
2013-09-27 17:44:00,63.0,54.0,30.20,East,96,1.0,3.0,73,0.00,,,0.00,,2013-09-27 21:44:00,
2013-09-27 17:54:00,63.0,54.0,30.20,ESE,123,0.0,3.0,73,0.00,,,0.00,,2013-09-27 21:54:00,
2013-09-27 18:24:00,63.0,54.0,30.21,ESE,103,1.0,5.0,73,0.00,,,0.00,,2013-09-27 22:24:00,
2013-09-27 18:53:00,62.0,54.0,30.22,ENE,72,0.0,3.0,74,0.00,,,0.00,,2013-09-27 22:53:00,
2013-09-27 19:22:00,61.0,53.0,30.22,NE,38,0.0,6.0,74,0.00,,,0.00,,2013-09-27 23:22:00,
2013-09-27 19:53:00,60.0,52.0,30.23,NNE,12,1.0,5.0,75,0.00,,,0.00,,2013-09-27 23:53:00,
2013-09-27 20:12:00,59.0,51.0,30.23,East,83,1.0,6.0,75,0.00,,,0.00,,2013-09-28 00:12:00,
2013-09-27 20:22:00,59.0,51.0,30.24,NE,49,2.0,6.0,75,0.00,,,0.00,,2013-09-28 00:22:00,
2013-09-27 20:42:00,59.0,51.0,30.24,East,80,1.0,5.0,75,0.00,,,0.00,,2013-09-28 00:42:00,
2013-09-27 20:52:00,59.0,51.0,30.24,ENE,76,1.0,5.0,75,0.00,,,0.00,,2013-09-28 00:52:00,
2013-09-27 21:22:00,59.0,51.0,30.25,East,91,1.0,3.0,75,0.00,,,0.00,,2013-09-28 01:22:00,
2013-09-27 21:42:00,58.0,50.0,30.25,East,86,0.0,5.0,76,0.00,,,0.00,,2013-09-28 01:42:00,
2013-09-27 21:52:00,58.0,50.0,30.25,ENE,59,2.0,3.0,75,0.00,,,0.00,,2013-09-28 01:52:00,
2013-09-27 22:12:00,58.0,50.0,30.25,NE,50,1.0,5.0,75,0.00,,,0.00,,2013-09-28 02:12:00,
2013-09-27 22:22:00,58.0,50.0,30.26,NNE,20,1.0,3.0,75,0.00,,,0.00,,2013-09-28 02:22:00,
2013-09-27 22:53:00,58.0,50.0,30.27,NNE,23,0.0,1.0,76,0.00,,,0.00,,2013-09-28 02:53:00,
2013-09-27 23:12:00,57.0,50.0,30.27,NNE,22,0.0,3.0,76,0.00,,,0.00,,2013-09-28 03:12:00,
2013-09-27 23:22:00,57.0,50.0,30.27,NNE,23,0.0,2.0,76,0.00,,,0.00,,2013-09-28 03:22:00,
2013-09-27 23:55:00,57.0,50.0,30.27,NNE,22,0.0,1.0,76,0.00,,,0.00,,2013-09-28 03:55:00,